User: anonymous   Login
Location: Oshawa
(43.9000°N, 78.8670°W)
Time: 10:05:07
(UTC-05:00)
Language:

CARTOSAT-1 - Orbit

View from above orbital plane
View from above orbital plane
View from above satellite
View from above satellite

Ground track
Ground track

The orbit data is extracted from the following two-line orbital elements,

1 28649U 05017A   16042.42959806 -.00001352  00000-0 -15831-3 0  9992
2 28649  97.9120 117.0280 0001668 171.8215 188.3040 14.83411218583074
Epoch (UTC): 11 February 2016 10:18:37
Eccentricity: 0.0001668
inclination: 97.9120°
perigee height: 617 km
apogee height: 620 km
right ascension of ascending node: 117.0280°
argument of perigee: 171.8215°
revolutions per day: 14.83411218
mean anomaly at epoch: 188.3040°
orbit number at epoch: 58307

The dashed part of the orbit path shows where the satellite is in the earth's shadow,  

DLR